Lapse_Rate
3.7 4.0 4.6 5.3 5.5 5.5 5.4 4.9 5.0 4.5 4.8 5.0 4.5 4.5 4.7 5.1 5.2 5.1 5.4 6.2 6.1 6.6 6.7 7.0 7.7 7.2 6.6 6.0 6.8 7.8 7.5 7.4 7.8 8.0 7.5 7.4 7.3 7.5 7.6 6.9 7.3 7.1 6.9 6.7
4.0 3.9 3.9 4.3 5.5 5.4 5.4 5.1 4.6 4.6 5.2 4.3 4.1 4.9 4.8 4.8 4.9 5.0 4.8 5.3 6.1 6.2 6.3 6.6 6.8 6.7 6.4 6.7 6.6 7.3 6.7 7.2 7.4 8.0 7.3 7.0 7.3 7.2 7.2 7.3 6.8 6.7 6.8 7.2
4.4 4.2 3.9 3.9 4.4 4.4 5.1 4.2 4.2 3.7 4.8 5.1 4.3 4.5 5.0 5.0 5.2 4.9 5.2 5.1 5.7 6.1 5.7 6.0 6.2 6.3 6.2 6.7 6.7 7.0 7.1 7.1 7.3 7.2 7.4 6.7 6.6 6.7 6.8 7.4 6.7 6.5 6.7 6.9
4.7 4.5 4.1 3.9 3.9 3.9 4.8 4.1 4.1 4.0 4.6 5.1 4.7 4.7 5.2 5.0 5.4 5.2 5.5 5.7 5.9 6.4 6.1 6.0 6.3 6.4 6.3 6.4 6.5 6.5 6.4 6.6 7.1 7.2 7.5 6.7 6.7 6.6 6.9 7.0 7.0 6.9 7.0 7.0
5.1 4.9 5.2 4.5 4.5 4.1 4.6 4.1 4.0 3.7 4.0 4.6 5.0 4.6 5.1 5.2 5.6 5.5 5.5 6.0 6.4 6.4 6.4 6.4 6.7 6.4 6.1 6.3 5.9 6.5 6.2 6.5 6.6 6.8 6.8 6.4 6.4 6.6 6.9 6.8 7.0 7.1 7.3 7.5
5.3 5.2 4.8 4.6 4.4 4.1 4.4 4.5 4.2 4.0 4.1 4.1 4.2 4.6 5.1 5.2 5.5 5.7 5.8 6.0 6.1 6.2 6.7 6.5 6.4 6.4 6.3 6.4 6.6 6.3 6.3 6.3 6.4 6.4 6.4 6.7 6.4 7.1 6.9 6.9 7.1 7.4 7.6 7.4
5.6 5.4 5.3 5.1 4.7 4.6 4.4 4.1 4.1 4.0 4.0 4.1 4.4 4.8 5.3 5.5 5.6 5.8 5.6 5.8 5.8 6.0 6.2 6.2 6.3 6.4 6.2 6.2 6.1 6.1 6.1 6.1 6.1 5.8 5.9 6.0 6.8 6.8 7.1 7.0 7.3 7.4 7.4 6.8
5.8 5.7 5.8 5.5 4.9 4.5 4.3 4.3 4.3 4.2 4.2 4.4 4.7 4.8 4.7 5.1 5.2 5.4 5.3 5.4 5.5 5.8 5.7 6.0 5.9 5.9 6.0 6.1 6.1 6.1 6.0 5.8 5.6 5.5 5.8 6.3 6.6 7.1 7.1 7.3 7.5 6.8 6.8 6.4
6.0 6.2 6.0 5.5 5.1 4.7 4.4 4.6 4.6 4.5 4.3 4.4 4.9 5.4 5.4 5.2 5.2 5.1 5.2 4.9 5.0 5.4 5.5 5.4 5.4 5.9 6.1 6.5 5.9 5.8 5.6 5.7 5.5 5.2 5.4 6.1 7.1 6.7 6.9 7.2 6.9 6.9 6.8 6.8
6.1 6.1 6.2 5.8 5.3 4.8 4.7 4.6 4.4 4.4 4.5 5.1 4.9 5.0 5.0 5.4 5.4 5.2 5.4 5.0 5.5 5.6 5.4 5.4 5.2 5.6 6.4 6.3 5.5 5.7 5.3 5.3 5.4 5.4 5.3 5.5 7.1 6.3 6.4 6.4 6.3 6.7 6.7 6.5
6.4 6.4 6.3 6.0 5.5 5.0 4.9 4.8 4.6 4.6 4.3 4.7 4.5 4.8 4.9 4.9 4.9 5.0 5.6 5.4 5.2 5.5 5.4 5.2 5.2 5.4 5.8 6.0 6.3 5.8 6.0 5.4 5.1 5.1 5.0 5.0 6.7 6.5 6.1 6.2 6.3 6.1 6.4 6.6
6.7 6.7 6.6 6.2 5.7 5.2 5.1 5.1 4.7 4.6 4.4 4.6 4.9 5.1 5.2 5.4 5.3 5.4 5.2 5.3 5.7 5.6 5.5 5.5 5.5 5.4 5.8 5.9 5.8 6.1 5.6 6.0 6.0 6.0 5.9 6.5 6.2 6.2 6.2 6.4 6.5 6.3 6.3 6.4
6.6 6.6 6.4 6.3 5.9 5.2 4.9 5.1 5.0 4.7 4.5 4.7 4.6 5.1 5.2 5.4 5.4 5.7 5.9 5.8 5.7 5.5 5.7 6.0 5.6 5.5 5.9 5.7 5.7 6.0 6.2 6.5 5.7 5.8 5.9 6.4 5.5 5.9 5.9 5.6 6.0 6.5 6.2 6.1
6.8 6.6 6.5 6.4 6.2 5.7 5.2 5.1 5.1 4.9 4.7 4.7 4.7 5.0 5.2 5.5 5.7 5.6 5.6 6.0 5.8 5.9 5.6 5.9 5.7 5.5 5.5 5.6 5.5 5.7 5.9 6.1 5.8 5.8 6.4 6.2 5.9 6.2 6.0 5.5 5.9 6.1 6.0 6.0
6.9 6.8 6.7 6.7 6.4 6.2 5.7 5.3 5.0 4.6 4.8 4.3 4.7 4.9 5.2 5.4 5.8 5.5 5.4 5.6 5.6 5.7 5.8 5.6 5.4 5.6 5.3 5.4 5.0 5.2 5.6 5.5 5.9 6.2 6.9 6.5 6.3 6.2 5.8 5.5 6.0 6.2 6.0 5.9
7.2 6.9 6.7 6.6 6.5 6.3 5.8 5.1 4.9 4.7 4.9 5.1 4.9 4.9 5.4 5.2 5.3 5.7 5.7 5.7 5.7 5.7 5.8 5.4 5.3 5.4 5.1 4.8 4.6 4.9 5.2 5.5 5.4 6.8 7.0 6.6 6.1 5.6 6.0 5.8 5.6 6.3 5.8 5.7
7.3 7.1 6.8 6.5 6.6 6.4 6.0 5.5 5.8 5.9 5.7 5.3 5.3 5.3 5.1 5.2 5.1 5.1 5.5 5.4 5.5 5.4 5.4 5.3 5.0 4.8 4.9 4.6 4.5 5.0 5.1 5.1 6.7 7.0 6.7 6.4 6.3 5.5 5.8 5.7 5.9 6.2 5.6 5.6
7.8 7.4 7.0 6.5 6.5 6.6 6.2 5.8 6.2 6.5 5.8 6.0 6.1 5.4 5.6 5.3 5.2 5.2 5.3 5.6 5.6 5.5 5.6 5.7 5.6 5.3 4.8 4.3 4.7 4.5 5.2 6.2 7.0 7.2 6.8 5.8 5.5 5.3 5.1 5.2 5.9 5.9 5.4 5.7
7.6 7.4 6.8 6.5 6.5 6.6 6.7 6.2 6.5 6.4 6.5 6.1 5.7 5.5 5.7 5.6 5.4 5.3 5.2 5.2 5.0 5.3 5.4 5.5 5.3 5.1 4.5 4.7 4.7 4.8 5.8 7.1 6.9 6.7 6.3 5.7 5.2 5.3 4.8 4.9 5.9 5.7 5.6 5.7
7.1 7.0 6.7 6.4 6.8 6.7 6.8 6.6 6.5 6.9 6.8 6.7 6.0 6.2 5.9 5.9 5.9 5.6 5.5 5.5 5.3 5.2 5.2 5.6 4.7 4.8 5.5 5.3 5.2 5.2 6.7 6.6 6.3 6.0 5.9 5.5 5.1 4.9 4.7 4.8 5.6 5.3 5.3 5.5
7.1 6.9 6.9 6.8 6.8 6.8 6.9 6.8 6.8 7.0 7.1 7.0 7.0 6.5 6.0 5.8 5.9 5.8 5.7 5.4 5.4 5.1 5.0 5.0 4.6 4.6 5.2 5.7 6.7 7.0 6.5 6.1 5.9 5.6 5.3 5.1 4.8 4.9 4.7 4.9 5.4 5.3 5.0 5.6
7.2 7.4 7.2 7.1 7.2 7.1 7.6 7.4 7.1 6.9 7.2 7.0 7.2 7.0 6.1 5.9 6.0 5.7 5.6 5.8 5.9 5.3 5.4 5.0 4.4 4.6 5.0 6.9 6.9 6.6 6.3 6.3 6.2 6.0 5.8 5.7 5.5 4.8 4.7 5.0 5.0 5.1 5.0 5.5
7.2 7.4 7.4 7.8 7.3 7.6 7.6 7.5 7.6 7.3 7.8 7.4 6.5 6.1 5.8 5.8 5.9 6.0 5.9 5.8 5.5 5.6 5.1 4.6 4.5 4.8 6.7 6.8 6.3 6.0 5.8 5.4 5.5 5.5 5.4 5.4 5.2 4.7 4.8 5.1 5.6 5.3 5.3 5.5
7.2 7.4 7.4 7.4 7.0 7.7 7.9 7.8 7.9 8.0 7.7 6.8 6.7 6.6 6.5 6.4 6.6 7.0 6.4 6.1 6.0 5.4 5.0 4.8 4.9 6.8 7.0 6.3 5.9 6.0 6.1 5.9 5.7 5.6 5.6 5.5 5.6 5.1 5.6 6.1 5.8 5.2 5.5 5.4
7.1 7.2 7.7 7.8 7.8 7.7 8.4 8.0 8.0 7.8 7.5 7.3 6.9 7.2 7.1 7.0 7.3 6.6 6.6 6.1 5.4 5.1 5.0 5.6 7.8 7.1 6.5 6.3 6.0 6.0 5.9 5.8 5.7 5.4 5.5 5.9 5.9 5.6 5.9 5.9 5.4 5.4 5.3 5.0
7.5 7.4 7.7 8.0 7.7 8.1 7.8 8.0 8.0 8.1 8.0 7.5 7.4 7.2 7.2 7.2 6.9 6.3 6.2 6.2 5.2 6.5 8.1 7.8 7.4 7.3 7.0 6.4 6.5 6.1 5.8 5.7 5.8 5.7 6.1 6.1 6.1 6.2 6.0 5.7 5.9 5.4 5.0 4.7
7.7 8.1 8.3 7.9 7.7 7.6 8.1 7.7 7.7 8.0 7.6 7.6 7.6 7.5 7.4 7.4 7.1 7.3 6.8 6.8 8.3 8.4 8.1 7.6 7.1 6.9 6.4 6.7 6.3 6.2 5.8 5.8 6.0 6.5 6.5 6.4 6.4 6.3 6.1 6.2 5.6 5.3 5.0 4.9
Wind_Speed
27 25 24 24 24 20 9 6 8 10 10 7 4 9 15 8 9 15 10 9 8 11 7 6 8 2 6 12 7 3 3 4 6 5 7 5 6 7 5 3 3 3 1 5
27 28 26 25 24 26 9 9 4 6 9 9 11 12 15 10 6 9 5 8 7 4 7 5 8 8 7 4 5 5 8 2 3 6 2 7 5 1 1 3 2 5 5 3
30 28 27 26 29 32 5 5 5 4 8 11 15 20 17 16 10 8 15 10 9 6 12 7 5 6 3 4 8 3 3 5 8 4 6 4 7 7 11 9 2 6 10 15
30 28 26 27 27 21 4 4 6 8 5 12 17 16 11 16 12 14 14 15 16 15 7 14 9 8 8 4 5 2 1 5 8 11 12 9 13 14 15 15 15 13 13 17
28 30 32 31 33 19 7 3 1 8 6 15 19 17 21 20 19 11 17 15 18 15 14 11 9 9 5 11 3 3 3 4 6 5 11 14 19 18 17 18 18 17 15 15
30 29 28 27 24 17 6 7 3 2 7 10 14 16 18 21 17 13 18 18 16 10 15 8 1 7 9 1 3 4 0 1 2 6 10 12 10 9 17 18 14 11 10 6
30 30 29 28 25 25 7 6 1 2 4 10 13 20 21 19 21 17 14 12 16 9 3 2 4 7 8 7 8 6 7 7 4 3 6 5 10 12 7 6 6 6 3 11
29 28 27 25 23 27 8 2 6 4 5 9 14 17 17 16 13 15 8 4 0 2 5 2 4 5 9 15 15 13 10 7 0 2 7 12 18 11 10 8 9 5 4 7
28 28 27 25 24 22 10 5 6 5 5 9 14 12 19 11 12 7 14 6 4 4 5 4 4 6 8 7 6 2 7 3 5 3 4 4 3 7 4 2 5 10 8 5
27 27 27 25 25 20 10 5 5 3 4 10 9 5 8 12 14 8 8 9 5 7 5 6 6 10 11 7 9 6 4 3 3 4 5 6 14 4 3 4 2 5 4 3
26 27 27 25 24 22 9 7 6 3 3 6 7 8 10 9 2 8 9 8 4 5 6 5 4 5 8 10 10 8 9 9 5 4 3 7 12 12 4 5 4 1 1 2
25 25 25 25 25 24 20 6 8 1 3 3 6 9 5 5 7 5 5 7 8 6 5 5 3 5 5 11 9 14 7 7 6 10 7 10 4 5 6 3 2 3 2 5
24 24 25 25 26 25 22 7 5 2 2 4 6 4 6 6 4 5 3 3 3 5 3 3 4 7 6 5 8 12 13 11 5 8 8 8 5 6 7 8 7 3 2 7
26 26 26 26 25 25 22 7 4 4 3 2 5 6 8 4 4 7 7 9 9 6 3 4 3 3 5 6 8 9 7 4 3 7 9 8 9 10 11 6 8 8 5 8
28 27 27 28 26 24 16 5 5 7 4 2 3 8 6 6 5 6 8 8 8 4 3 3 3 4 5 4 2 6 9 6 5 4 6 6 8 13 6 7 11 9 9 9
28 27 27 28 26 25 5 3 6 11 6 1 2 3 4 6 6 7 7 7 6 4 2 2 2 2 2 3 4 9 12 11 11 12 12 13 14 3 5 6 9 10 10 9
28 29 27 26 28 14 9 4 3 25 6 1 3 2 2 5 6 2 1 1 2 2 2 3 5 3 3 3 11 12 13 12 13 14 13 14 16 8 7 8 8 10 9 10
31 30 28 25 26 11 8 3 13 24 6 1 3 3 3 2 2 3 2 1 2 2 3 2 4 5 4 6 9 12 16 19 23 22 15 15 14 13 13 9 10 11 11 10
31 29 27 10 7 6 10 19 14 11 4 4 2 6 5 5 1 1 2 3 3 3 3 6 5 6 8 9 13 15 15 18 17 17 17 16 17 18 13 14 14 12 11 11
32 15 4 3 5 10 18 5 3 5 3 4 5 4 4 6 3 3 3 3 3 3 5 4 7 15 19 18 18 15 17 15 15 16 16 15 13 13 12 16 12 12 11 11
8 5 3 3 25 4 4 5 6 3 2 4 8 12 5 5 6 3 3 4 4 4 5 5 5 6 12 20 26 27 24 21 20 21 20 17 13 12 11 12 12 10 11 11
10 7 6 5 5 3 7 5 6 5 7 6 13 13 7 5 5 4 4 4 5 6 3 4 5 4 10 15 14 17 17 19 20 19 18 17 17 8 12 13 12 12 11 11
8 5 5 6 6 9 7 12 4 7 6 7 10 12 6 4 5 2 6 7 5 2 4 5 3 2 9 9 9 10 9 8 9 12 13 9 8 13 12 13 13 13 13 12
5 7 8 4 7 9 6 12 13 7 9 10 11 11 5 5 7 5 5 6 4 5 8 12 3 9 8 10 11 12 14 10 6 11 11 7 10 12 10 12 13 13 12 11
5 7 6 9 7 11 11 10 14 10 10 11 11 7 5 6 4 5 5 5 7 7 10 7 9 10 13 12 11 6 3 1 3 6 5 6 11 13 12 12 13 13 13 13
5 5 8 9 10 9 12 11 12 12 12 10 7 4 4 5 4 7 8 5 7 8 10 6 8 11 12 10 1 2 3 3 5 7 9 10 12 12 13 14 13 12 13 13
4 3 7 10 10 9 11 10 10 13 12 11 5 9 8 5 5 9 6 11 17 8 5 2 4 7 8 3 4 3 3 5 5 11 10 10 11 13 13 14 12 12 12 10
Wind_Direction
167 163 166 168 175 176 162 202 201 140 145 193 203 220 207 197 235 223 241 266 289 283 287 276 214 103 67 311 296 316 27 336 303 298 18 343 316 318 331 86 298 330 237 272
165 163 166 170 176 180 179 193 148 176 194 214 220 225 236 217 221 218 227 223 230 267 290 250 272 135 154 223 45 23 5 279 332 284 209 15 319 359 109 232 93 252 275 266
164 166 166 175 186 202 247 196 181 149 206 236 235 220 222 225 239 229 221 218 214 243 239 268 251 233 152 66 92 337 333 268 266 248 303 237 259 283 286 298 195 249 253 278
165 166 168 180 195 208 226 252 195 169 190 218 226 226 207 212 217 218 209 233 206 211 208 212 221 241 176 201 140 211 263 262 272 294 312 295 287 288 280 272 268 256 257 262
165 168 172 183 195 177 218 245 180 167 222 207 212 224 216 199 216 205 226 241 214 234 243 228 249 318 302 247 156 233 75 278 282 299 293 279 272 269 264 265 263 266 269 274
164 166 172 186 196 190 212 215 266 193 210 208 206 218 223 213 217 201 221 227 242 222 240 260 260 252 279 45 188 170 155 262 312 268 283 293 283 258 263 254 260 256 256 46
167 169 177 186 192 195 234 219 307 260 215 227 215 211 224 221 227 216 195 218 235 235 325 123 185 238 252 244 239 249 256 256 263 254 286 252 251 259 303 321 295 288 4 55
167 172 177 184 190 205 240 264 214 239 238 232 228 205 229 234 236 248 156 216 85 48 130 356 234 236 259 252 248 238 222 234 132 218 230 274 288 266 235 289 236 93 104 80
169 173 177 182 188 202 225 242 307 278 256 247 229 229 210 203 226 207 230 93 135 219 184 185 215 224 211 211 157 96 75 70 164 181 248 244 271 101 47 353 256 80 88 49
172 172 178 182 185 189 202 231 269 277 236 256 338 259 279 223 208 205 215 154 192 201 206 204 221 230 237 207 179 175 140 120 184 219 247 271 281 74 68 233 136 110 38 34
173 174 178 179 180 175 181 223 231 303 270 305 331 339 8 328 309 208 171 171 228 190 211 204 207 239 236 241 236 167 170 173 184 183 239 251 255 240 210 93 135 176 265 1
173 175 176 177 174 173 178 223 200 302 302 319 313 308 324 24 5 332 300 198 168 182 196 223 197 228 232 232 239 225 191 202 175 182 202 234 239 110 128 133 281 302 335 109
173 176 176 177 172 171 175 206 147 136 53 329 294 317 355 349 334 342 316 267 331 236 214 239 237 240 216 224 231 250 263 220 212 235 250 267 162 283 232 212 225 190 187 162
174 175 177 177 175 171 177 191 171 162 105 235 278 314 272 343 322 282 284 308 309 296 285 237 246 245 266 274 280 267 236 307 238 270 259 259 280 271 285 102 123 152 159 179
174 175 177 175 172 168 170 180 186 202 182 198 289 311 289 262 281 271 265 275 288 286 271 242 243 266 284 271 321 264 252 221 223 236 248 235 255 266 281 184 169 169 177 188
172 171 178 179 174 163 140 195 234 213 230 142 244 304 293 239 239 249 253 249 270 245 267 314 263 276 306 267 246 244 264 270 282 270 277 277 270 264 276 225 186 183 187 197
173 174 175 176 175 170 180 182 195 176 159 119 202 219 270 296 222 235 270 323 285 292 259 224 248 225 192 250 248 259 275 283 266 257 265 266 258 243 226 211 218 153 184 193
180 175 171 173 174 180 235 263 146 147 133 256 231 154 195 294 175 168 160 197 221 252 257 270 254 277 236 250 248 244 244 249 256 259 250 247 263 253 227 181 155 176 191 170
174 169 169 164 181 202 204 193 164 140 154 188 228 177 168 161 141 78 137 189 210 237 246 232 247 236 230 248 250 249 250 245 250 253 259 263 263 256 223 175 182 188 189 173
165 144 162 185 180 150 123 145 171 207 205 220 205 252 142 172 139 146 137 184 213 230 223 215 236 242 248 251 268 277 265 255 259 259 258 252 252 258 230 174 182 185 182 172
169 163 161 156 135 137 148 192 194 162 222 211 199 209 141 187 163 151 213 193 198 230 211 209 232 240 226 233 237 245 258 265 265 267 274 274 266 260 146 162 177 178 167 171
151 157 122 136 166 171 191 197 164 178 200 200 197 188 143 157 160 155 187 219 199 237 178 200 244 215 236 240 245 246 244 247 251 252 251 248 240 190 156 161 165 164 160 157
152 174 153 171 170 193 209 163 183 178 191 187 180 161 145 144 192 170 182 215 217 199 225 236 229 270 263 275 285 289 284 247 268 283 281 246 201 161 163 162 152 151 147 148
167 188 175 229 158 190 185 182 174 197 162 163 176 151 156 173 177 172 213 204 200 230 229 229 187 234 254 259 261 268 266 273 281 277 265 238 145 155 143 144 139 142 142 131
160 189 211 204 187 206 188 181 182 177 169 170 159 163 161 170 192 202 213 200 225 234 246 255 240 244 249 253 252 265 278 262 273 270 65 72 108 116 109 118 129 121 122 130
176 215 192 193 197 191 197 192 181 177 168 161 147 130 189 197 212 191 206 201 226 230 231 239 234 240 249 248 134 181 220 202 224 103 114 111 111 118 124 126 117 125 133 140
217 203 229 199 196 187 193 202 190 178 172 168 161 177 198 149 220 210 210 221 231 243 290 287 270 234 245 158 104 126 164 170 171 120 124 125 125 128 135 131 139 142 141 140